EW8371 Weather Reports


Display with metric or nautical units.
time (UTC)temp
F
wind
direction
speed
MPH
gust
MPH
rain 1hr
in
rain 24hr
in
rain mn
in
humidity
%
barometer
mb
20260509021516 39 340 0.0 0.0 0.00 0.06 0.06 74 1010.7
20260509020018 39 340 0.0 0.0 0.00 0.06 0.06 74 1010.7
20260509014511 39 340 0.0 0.0 0.00 0.06 0.06 74 1010.5
20260509013013 39 340 0.0 0.0 0.00 0.06 0.06 74 1010.3
20260509011510 40 340 0.0 0.0 0.00 0.06 0.06 74 1010.2
20260509010012 41 338 0.0 0.0 0.00 0.06 0.06 73 1010.0
20260509004520 42 298 0.0 0.0 0.00 0.06 0.06 71 1009.7
20260509003006 43 302 0.0 0.0 0.00 0.06 0.06 70 1009.4
20260509001507 44 261 0.0 1.0 0.00 0.06 0.06 67 1009.2
20260509000004 45 263 0.0 2.0 0.00 0.06 0.06 64 1009.2
20260508234501 47 288 0.0 1.0 0.00 0.06 0.06 60 1009.1
20260508233002 48 259 1.0 3.0 0.00 0.06 0.06 53 1008.9
20260508231600 50 319 1.0 3.0 0.00 0.06 0.06 50 1008.8
20260508230107 51 5 3.0 5.0 0.00 0.06 0.06 47 1008.8
20260508224556 51 5 1.0 4.0 0.00 0.06 0.06 47 1008.9
20260508223056 51 360 2.0 6.0 0.00 0.06 0.06 48 1008.8
20260508221559 52 5 3.0 8.0 0.00 0.06 0.06 47 1008.9
20260508220054 51 5 5.0 15.0 0.00 0.06 0.06 49 1008.9
20260508214550 51 5 1.0 6.0 0.00 0.06 0.06 51 1008.8
20260508213049 51 5 1.0 10.0 0.00 0.06 0.06 51 1008.8
20260508211547 50 5 7.0 12.0 0.00 0.06 0.06 54 1008.9
20260508210047 50 5 2.0 10.0 0.00 0.06 0.06 54 1008.9
20260508204515 49 62 1.0 15.0 0.00 0.06 0.06 57 1008.9
20260508203014 49 211 3.0 12.0 0.00 0.06 0.06 62 1008.8
20260508201508 48 5 2.0 9.0 0.00 0.06 0.06 61 1008.9
20260508200010 49 289 5.0 11.0 0.00 0.06 0.06 65 1009.0
20260508194626 47 163 2.0 6.0 0.00 0.06 0.06 72 1009.2
20260508193107 46 288 4.0 10.0 0.00 0.06 0.06 71 1009.4
20260508191600 46 351 0.0 8.0 0.00 0.06 0.06 71 1009.6
20260508190056 46 285 5.0 12.0 0.00 0.06 0.06 69 1009.7
20260508184554 46 299 1.0 6.0 0.00 0.06 0.06 70 1009.6
20260508183051 46 160 2.0 10.0 0.00 0.06 0.06 72 1009.7
20260508181527 45 315 1.0 8.0 0.00 0.06 0.06 73 1009.9
20260508180019 45 190 0.0 5.0 0.00 0.06 0.06 73 1009.7
20260508174510 44 219 1.0 7.0 0.00 0.06 0.06 73 1009.6
20260508173015 43 198 4.0 9.0 0.00 0.06 0.06 72 1009.9
20260508171508 43 203 1.0 11.0 0.01 0.06 0.06 61 1009.9
20260508170001 42 108 2.0 8.0 0.02 0.06 0.06 48 1010.2
20260508164528 41 349 3.0 7.0 0.03 0.06 0.06 51 1010.3
20260508163026 40 237 1.0 3.0 0.06 0.06 0.06 50 1010.4
20260508161528 40 336 0.0 3.0 0.05 0.05 0.05 57 1010.6
20260508160027 39 338 3.0 8.0 0.04 0.04 0.04 65 1010.6
20260508154515 41 261 2.0 6.0 0.03 0.03 0.03 68 1010.4
20260508153013 40 360 2.0 6.0 0.00 0.00 0.00 83 1010.3
20260508151541 41 278 1.0 8.0 0.00 0.00 0.00 79 1010.2
20260508150040 41 321 3.0 8.0 0.00 0.00 0.00 75 1010.0
20260508144537 42 360 5.0 16.0 0.00 0.00 0.00 70 1009.8
20260508143042 44 360 2.0 11.0 0.00 0.00 0.00 63 1009.3
20260508141536 44 360 5.0 11.0 0.00 0.00 0.00 63 1009.2
20260508140037 44 360 2.0 11.0 0.00 0.00 0.00 68 1009.2
20260508134537 44 166 4.0 8.0 0.00 0.00 0.00 68 1008.8
20260508134534 44 168 4.0 8.0 0.00 0.00 0.00 68 1008.8
20260508133005 44 172 1.0 7.0 0.00 0.00 0.00 70 1008.9
20260508131505 44 177 1.0 7.0 0.00 0.00 0.00 71 1009.1
20260508130001 43 263 2.0 7.0 0.00 0.00 0.00 69 1009.2
20260508124604 43 140 2.0 5.0 0.00 0.00 0.00 80 1009.0
20260508123107 41 149 0.0 4.0 0.00 0.00 0.00 81 1009.2
20260508121559 40 140 1.0 4.0 0.00 0.00 0.00 83 1009.5
20260508120057 39 175 1.0 5.0 0.00 0.00 0.00 86 1009.7
20260508114555 39 182 2.0 4.0 0.00 0.00 0.00 87 1009.5
20260508113055 38 130 3.0 4.0 0.00 0.00 0.00 89 1009.4
20260508111601 37 186 1.0 3.0 0.00 0.00 0.00 90 1009.9
20260508110051 36 219 1.0 3.0 0.00 0.00 0.00 90 1009.8
20260508104550 36 200 2.0 4.0 0.00 0.00 0.00 91 1009.7
20260508103049 36 215 3.0 4.0 0.00 0.00 0.00 91 1009.2
20260508101548 36 183 1.0 3.0 0.00 0.00 0.00 91 1009.2
20260508100045 36 195 0.0 3.0 0.00 0.00 0.00 89 1009.2
20260508094551 36 190 2.0 3.0 0.00 0.00 0.00 89 1009.0
20260508093043 36 180 0.0 4.0 0.00 0.00 0.00 88 1009.1
20260508091543 36 205 3.0 5.0 0.00 0.00 0.00 87 1009.1
20260508090038 36 178 1.0 3.0 0.00 0.00 0.00 88 1009.0
20260508084540 35 101 0.0 0.0 0.00 0.00 0.00 90 1008.9
20260508083037 35 101 0.0 2.0 0.00 0.00 0.00 90 1008.9
20260508081536 34 171 0.0 2.0 0.00 0.00 0.00 90 1008.8
20260508080033 34 171 0.0 2.0 0.00 0.00 0.00 89 1008.6
20260508074535 33 162 0.0 0.0 0.00 0.00 0.00 90 1008.4
20260508073032 33 162 0.0 2.0 0.00 0.00 0.00 90 1008.3
20260508071532 33 161 2.0 3.0 0.00 0.00 0.00 90 1008.3
20260508070029 32 137 0.0 2.0 0.00 0.00 0.00 90 1008.2
20260508064527 32 137 0.0 2.0 0.00 0.00 0.00 90 1008.2
20260508063025 32 144 2.0 4.0 0.00 0.00 0.00 89 1008.0
20260508061527 33 86 0.0 0.0 0.00 0.00 0.00 89 1008.0
20260508060057 33 86 0.0 1.0 0.00 0.00 0.00 89 1008.1
20260508054557 33 86 0.0 0.0 0.00 0.00 0.00 89 1008.2
20260508053056 33 86 0.0 1.0 0.00 0.00 0.00 89 1008.4
20260508051549 33 86 0.0 2.0 0.00 0.00 0.00 88 1008.5
20260508050048 33 86 0.0 0.0 0.00 0.00 0.00 88 1008.4
20260508044602 33 86 0.0 0.0 0.00 0.00 0.00 87 1008.5
20260508043046 33 86 0.0 0.0 0.00 0.00 0.00 87 1008.4
20260508041542 33 86 0.0 0.0 0.00 0.00 0.00 86 1008.2
20260508040042 33 86 0.0 0.0 0.00 0.00 0.00 85 1008.1
20260508034549 33 86 0.0 0.0 0.00 0.00 0.00 85 1008.0
20260508033009 34 86 0.0 2.0 0.00 0.00 0.00 84 1008.0
20260508031506 35 163 0.0 3.0 0.00 0.00 0.00 81 1007.9
20260508030043 35 284 1.0 2.0 0.00 0.00 0.00 80 1007.8
20260508024538 36 322 0.0 0.0 0.00 0.00 0.00 80 1007.8
20260508023029 37 322 0.0 0.0 0.00 0.00 0.00 78 1008.0